Find Telesat LEO 3

NORAD ID: 57392 Int'l Des: 2023-100 Owner: TCANL Country: CA operational
LEOCIRCULARRETROGRADESSO

Current View

Loading 3D Globe...

About Telesat LEO 3

Description loading...

Upcoming Passes

Passes for default location (London). Set your location on the main map for personalized predictions.

Altitude History

Loading altitude history...

Two-Line Element Set

1 57392U 23100G 26150.85876411 -.00000031 00000-0 15233-4 0 9999
2 57392 99.5615 275.3429 0018963 62.2167 298.0898 13.68420194143275
Epoch: May 30, 2026 • Age: 11 hours

Current Status

Altitude 1007.9 km
Velocity 7.35 km/s
Sub-Earth Point 44.45°N, 99.53°E
Launch Date Jul 18, 2023
Age 2.8 years
Type other

Technical Details

Classification Payload
Mass 30.00 kg
Dry Mass 30.00 kg
Total Mass 30.00 kg
Length 0.50 m
Diameter 0.30 m
Span 1.30 m
Shape Box + 2 pan
Manufacturer UTIAS
Bus Type Defiant
Phase Status In Orbit
Owner/State TCANL/CA

Most Searched